Location: Bilsen
(53.7722°N, 9.8765°E)
Time: 19:15:44
(UTC+00:00)

CZ-4B R/B - Pass Details

Date: 18 February 2020
Orbit: 486 x 652 km, 97.9° (Epoch: 05 April)

Event Time Altitude Azimuth Distance (km) Brightness Sun altitude
Rises 05:12:22 0° 8° (N) 2,680 6.4 -12.8°
Reaches altitude 10° 05:14:40 10° 358° (N) 1,760 5.3 -12.4°
Maximum altitude 05:18:00 30° 296° (WNW) 923 3.5 -11.9°
Enters shadow 05:21:10 10° 234° (SW) 1,680 4.8 -11.5°
